COSMOS 970 DEB

Satellite information

Favourite Embed

Satellite Type and Status

DEBRISIN ORBIT

Key statistics

Satellite COSMOS 970 DEB at a glance.

Uptime

17482

Days in orbit

Revolutions

≈ 13.8

Per day

Orbit

LEO

Low Earth Orbit

Inclination

65.8

Latest

Satellite identification and parameters

Extended collection of information and parameters for COSMOS 970 DEB.

Object identification

Identified? True

Debris? True

Object name: COSMOS 970 DEB

International designator: 1977-121AE

Object number (NORAD): 10883

Object ID (CCSDS): 10883

Country: COMMONWEALTH OF INDEPENDENT STATES (CIS)

Current information (Y/N): Y

RCS size: SMALL

Orbital parameters

Period: 104.662 minutes

Inclination: 65.8412 deg

SMA: 7356.731 km

Apoapsis: 1070.875 km

Periapsis: 886.318 km

RAAN: 73.3296 deg

Eccentricy: 0.0125434

Argument of periapsis: 212.7367 deg

Mean anomaly: 301.7017 deg

Mean motion: 13.7586369 rev/day

Mean motion (dot): 0.00000746 rev/day2

B* drag term: 0.00080521 1/REarth

Two-line elements (TLE)

Creation date: Oct. 31, 2025, 10:56 p.m.

Reference frame: TEME

Reference center: EARTH

Epoch: Oct. 31, 2025, 7:34 p.m. UTC

TLE line 0: 0 COSMOS 970 DEB

TLE line 1: 1 10883U 77121AE 25304.81571558 .00000746 00000-0 80521-3 0 9998

TLE line 2: 2 10883 65.8412 73.3296 0125434 212.7367 301.7017 13.75863690390879

Live tracking on map

Real-time ground track for satellite COSMOS 970 DEB.

In-orbit conjunctions

A list of the most updated potential collisions computed for object COSMOS 970 DEB.

Target Orbit TCA Probability of collision Miss distance Type
CZ-6A DEB SSO 2025-04-06 17:03:13 0.0001203543 187.0 (m) DEBRIS
DELTA 1 DEB SSO 2024-06-02 13:18:29 0.0001059436 101.0 (m) DEBRIS

Associated space launch

Second generation ASAT satellite

COSMOS 970 DEB was lifted into orbit during the mission ‘Tsiklon-2 | IS-A 8’, on board a Tsiklon-2 space rocket.

The launch took place on Dec. 21, 1977, 10:35 a.m. from 90.

For more information about the launch, click the button.

Launch to space Tsiklon-2 | IS-A 8
Tsiklon-2 | IS-A 8

Agency: N/A

Status: Launch Successful

Launch date: Dec. 21, 1977, 10:35 a.m. UTC

Rocket: Tsiklon-2

Launch pad: 90

Location: Baikonur Cosmodrome, Republic of Kazakhstan

...

Latest news about this satellite

There are no fresh news available about this satellite. Check back as we update our databases every day.


Newsletter sign-up

Weekly statistics, charts and insights to help you stay on top of the space industry.